Find Starlink 5334

NORAD ID: 56509 Int'l Des: 2023-065 Owner: SPXS Country: US Constellation: starlink operational
LEOCIRCULAR

現在のビュー

3D地球を読み込み中...

About Starlink 5334

Starlink 5334 (NORAD 56509) is a starlink constellation satellite (v1.5) launched May 14, 2023 by SPXS of US. It operates in LEO, CIRCULAR orbit with a mass of 305.00 kg.

Starlink 5334について

説明を読み込み中...

次回通過

Passes for default location (London). Set your location on the main map for personalized predictions.

高度履歴

Loading altitude history...

軌道要素

1 56509U 23065G 26173.44623733 .00000766 00000-0 37384-4 0 9990
2 56509 43.0046 340.6374 0001542 269.1060 90.9615 15.27571499172625
Epoch: Jun 22, 2026 • Age: 21 hours

現在のステータス

高度 482.7 km
速度 7.63 km/s
衛星直下点 16.68°N, 108.74°E
打ち上げ日 May 14, 2023
運用期間 3.1 years
タイプ internet

技術仕様

分類 Payload
質量 305.00 kg
乾燥質量 290.00 kg
総質量 305.00 kg
長さ 0.20 m
直径 2.80 m
スパン 9.00 m
形状 Box + pan
製造者 SPXS
バスタイプ Starlink
フェーズステータス In Orbit
所有者/国 SPXS/US

Most Searched